TITAN 3C TRANSTAGE DEB, 43456

Orbit data source: Space-Track

TITAN 3C TRANSTAGE DEB, 43456 is space debris in GEO originally from a launch on Sun, 09 Feb 1969 UTC launched from the Air Force Eastern Test Range (AFETR). Debris objects in space refer to the collection of defunct objects orbiting the Earth. Examples of debris include non-operational satellites, rocket bodies, and fragments generated from explosions, collisions, or faulty payload assembly.

Not visible in the next 10 days
Identifier
43456, 1969-013P
Orbit
GEO
Country
Flag of USUS
Related business
Manufacturer
Martin Marietta
Mission
Spacecraft
Bus & Motor
Unknown
Mass
Unknown
Launch date (UTC)
1969-02-09 (57 years ago)
Launch vehicle
Unknown
Launch site
Air Force Eastern Test Range (AFETR)
Object type
Payload
Rocket body
Debris
Shape & HBR
Unknown shape, 1.1 m
Radar Cross Section
RCS unknown

Expand to show TLE details & history
Last TLE update: 5 days ago

TLE from 5 days ago
0 TITAN 3C TRANSTAGE DEB
1 43456U 69013P   25345.91223205  .00000016  00000-0  00000-0 0  9991
2 43456   1.5933  45.8988 0479479  87.1149 277.7829  1.02714935  4803
Epoch: 2025-12-11T21:53Z
TLE epoch observation values (Epoch: 2025-12-11T21:53:36.849Z)
Latitude
-0°
Longitude
-3.94253°
Altitude
34,932.75 km
Speed
3.113 km/s
True Right ascension
03h 01m 17s
True Declination
0° 00' 00"
Sunlit
Object was in daylight at epoch
Visualization orbit readout
Latitude
Unknown
Longitude
Unknown
Altitude
Unknown
Speed
Unknown
Apparent Right ascension
Unknown
Apparent Declination
Unknown
Sunlit
N/A
Visualization observer readout
Local Sidereal Time
15:08:59
Azimuth
Unknown
Elevation
Unknown
Doppler factor
Unknown
Orbital elements
Apogee altitude
37,105.968 km
Perigee altitude
33,126.817 km
Semi-major axis
41,494.53 km
Eccentricity
0.04795
Inclination
1.5933°
RAAN
45.8988°
Arg. of periapsis
87.1149°
True anomaly
272.30293°
Mean anomaly
277.7829°
Eccentric anomaly
275.04634°
Mean motion
0.25678 °/min
Orbital period
1,401.99 mins
BSTAR
0
Loading maneuver chart data...
Computing Atmospheric mass density...

Documentation

Showing up to 5 results
|